Regional Weather Roundup
Issued by NWS

Home | Current Version | Previous Version | Text Only | Print | Product List | Glossary On
Versions: 1 2 3 4 5 6 7 8 9 10 11 12 13 14 15 16 17 18 19 20 21 22 23 24 25 26 27 28 29 30 31 32 33 34 35 36 37 38 39 40 41 42 43 44 45 46 47 48 49 50
000
ASUS43 KTOP 301359
RWRKS

WEATHER ROUNDUP FOR KANSAS
NATIONAL WEATHER SERVICE GOODLAND KS
900 AM CDT MON MAR 30 2015

NOTE:  "FAIR" INDICATES FEW OR NO CLOUDS BELOW 12,000 FEET WITH NO
SIGNIFICANT WEATHER AND/OR OBSTRUCTIONS TO VISIBILITY.

KSZ001>006-013>018-027>032-041>047-301500-
NORTHWEST KANSAS

CITY           SKY/WX    TMP DP  RH WIND       PRES   REMARKS
GOODLAND       SUNNY     47  27  45 S12       30.11S
HAYS           SUNNY     45  27  49 S12       30.15F
HILL CITY      SUNNY     49  25  39 SW12      30.12F
RUSSELL        SUNNY     50  31  48 S16       30.13F
$$

KSZ061>065-074>080-084>089-301500-
SOUTHWEST KANSAS

CITY           SKY/WX    TMP DP  RH WIND       PRES   REMARKS
DODGE CITY     SUNNY     47  30  51 S15       30.18F
ELKHART          N/A     52  27  38 S14         N/A
GARDEN CITY    SUNNY     44  31  60 S12       30.15S
GREAT BEND     SUNNY     48  34  57 S10       30.18F
LIBERAL        SUNNY     50  34  53 SW13      30.20F
$$

KSZ066>073-081>083-090>101-301500-
SOUTHEAST KANSAS

CITY           SKY/WX    TMP DP  RH WIND       PRES   REMARKS
CHANUTE        SUNNY     50  42  74 CALM      30.20F
COFFEYVILLE    SUNNY     44  41  89 CALM      30.21F
HUTCHINSON     SUNNY     47  36  65 S5        30.19F
MEDICINE LODGE   N/A     44  35  70 CALM      30.19F
NEWTON         SUNNY     48  34  57 S10       30.20F
PARSONS        SUNNY     48  42  80 CALM      30.21F
WICHITA INTL   MOSUNNY   47  37  68 CALM      30.19F
WICHITA JABRA  SUNNY     51  39  63 S9        30.19F
WINFIELD       SUNNY     48  40  73 SE3       30.21S
$$

KSZ007>012-019>026-033>040-048>060-102>105-301500-
NORTHEAST KANSAS

CITY           SKY/WX    TMP DP  RH WIND       PRES   REMARKS
CONCORDIA      SUNNY     51  30  44 SW20      30.14S HAZE
EMPORIA        SUNNY     48  38  68 S13       30.17F
LAWRENCE       MOSUNNY   39  35  86 CALM      30.19F
MANHATTAN      SUNNY     40  33  76 SW5       30.18R
OLATHE IND     MOSUNNY   46  37  71 SW9       30.20F
OLATHE EXE     MOSUNNY   47  38  71 SW5       30.19S
SALINA         SUNNY     51  34  52 S12       30.16F
TOPEKA BILLARD MOSUNNY   44  37  76 E3        30.18F
TOPEKA FORBES  SUNNY     48  35  60 S9        30.17F
$$


USA.gov is the U.S. government's official web portal to all federal, state and local government web resources and services.